Location: Unspecified
(0.0000°N, 0.0000°E)
Time: 11:27:15
(UTC+02:00)

Tiros 1 despin weight - Visible Passes

Search period start: 19 April 2015 00:00
Search period end: 29 April 2015 00:00
Orbit: 598 x 648 km, 48.2° (Epoch: 18 April)

Date Brightness Start Highest point End Pass type
(mag) Time Alt. Az. Time Alt. Az. Time Alt. Az.
19 Apr ? 21:34:45 10° N 21:36:46 20° NNE 21:36:46 20° NNE visible
20 Apr ? 21:52:08 10° NW 21:54:53 36° NNW 21:54:53 36° NNW visible
21 Apr ? 20:30:25 10° N 20:33:08 16° NE 20:35:50 11° E visible
21 Apr ? 22:10:36 10° WNW 22:13:03 26° W 22:13:03 26° W visible
22 Apr ? 20:47:04 10° NNW 20:51:22 44° NE 20:54:03 20° ESE visible
22 Apr ? 22:30:45 10° WSW 22:31:17 11° WSW 22:31:17 11° WSW visible
23 Apr ? 21:05:01 10° NW 21:09:28 61° SW 21:12:18 21° SSE visible
24 Apr ? 21:24:07 10° W 21:27:38 21° SW 21:30:32 12° S visible
26 Apr ? 06:31:09 10° SE 06:31:21 10° SE 06:31:52 10° SE visible
26 Apr ? 20:18:07 10° WNW 20:22:17 35° SW 20:26:22 10° SSE visible
27 Apr ? 06:45:46 10° S 06:49:38 28° SE 06:53:36 10° ENE visible
27 Apr ? 20:38:20 10° WSW 20:40:30 13° SW 20:42:26 10° SSW visible
28 Apr ? 07:03:31 12° SW 07:07:44 80° SE 07:12:21 10° NE visible
